Time,TemperatureF,DewpointF,PressureIn,WindDirection,WindDirectionDegrees,WindSpeedMPH,WindSpeedGustMPH,Humidity,HourlyPrecipIn,Conditions,Clouds,dailyrainin,SoftwareType,DateUTC
2013-03-07 00:00:00,63.1,63.1,30.03,WNW,301,10.0,10.0,100,0.00,,,0.00,Wunderground v.1.15,2013-03-07 05:00:00,
2013-03-07 00:10:00,62.9,62.9,30.03,NW,326,11.0,11.0,100,0.00,,,0.00,Wunderground v.1.15,2013-03-07 05:10:00,
2013-03-07 00:15:00,62.9,62.9,30.03,NW,306,10.0,11.0,100,0.00,,,0.00,Wunderground v.1.15,2013-03-07 05:15:00,
2013-03-07 00:25:00,62.9,62.9,30.03,NNW,336,11.0,14.0,100,0.00,,,0.00,Wunderground v.1.15,2013-03-07 05:25:00,
2013-03-07 00:30:00,62.7,62.7,30.03,WNW,302,11.0,11.0,100,0.00,,,0.00,Wunderground v.1.15,2013-03-07 05:30:00,
2013-03-07 00:40:00,62.6,62.6,30.03,NNW,335,11.0,11.0,100,0.00,,,0.00,Wunderground v.1.15,2013-03-07 05:40:00,
2013-03-07 00:50:00,62.7,62.7,30.03,NW,308,10.0,17.0,100,0.00,,,0.00,Wunderground v.1.15,2013-03-07 05:50:00,
2013-03-07 01:00:00,62.6,62.6,30.03,WNW,295,12.0,12.0,100,0.00,,,0.00,Wunderground v.1.15,2013-03-07 06:00:00,
2013-03-07 01:05:00,62.6,62.6,30.03,NW,319,11.0,17.0,100,0.00,,,0.00,Wunderground v.1.15,2013-03-07 06:05:00,
2013-03-07 01:10:00,62.4,62.4,30.03,NW,315,12.0,12.0,100,0.00,,,0.00,Wunderground v.1.15,2013-03-07 06:10:00,
2013-03-07 01:15:00,62.3,62.3,30.03,North,357,12.0,12.0,100,0.00,,,0.00,Wunderground v.1.15,2013-03-07 06:15:00,
2013-03-07 01:20:00,62.4,62.4,30.03,NNW,332,11.0,11.0,100,0.00,,,0.00,Wunderground v.1.15,2013-03-07 06:20:00,
2013-03-07 01:30:00,62.3,62.3,30.02,NW,308,10.0,10.0,100,0.00,,,0.00,Wunderground v.1.15,2013-03-07 06:30:00,
2013-03-07 01:35:00,62.1,62.1,30.02,NW,318,11.0,11.0,100,0.00,,,0.00,Wunderground v.1.15,2013-03-07 06:35:00,
2013-03-07 01:40:00,62.0,62.0,30.02,WNW,282,12.0,15.0,100,0.00,,,0.00,Wunderground v.1.15,2013-03-07 06:40:00,
2013-03-07 01:45:00,62.0,62.0,30.02,NW,325,12.0,15.0,100,0.00,,,0.00,Wunderground v.1.15,2013-03-07 06:45:00,
2013-03-07 01:50:00,62.1,62.1,30.02,NW,316,12.0,12.0,100,0.00,,,0.00,Wunderground v.1.15,2013-03-07 06:50:00,
2013-03-07 01:55:00,62.1,62.1,30.02,NW,312,11.0,12.0,100,0.00,,,0.00,Wunderground v.1.15,2013-03-07 06:55:00,
2013-03-07 02:05:00,61.8,61.8,30.01,NW,325,11.0,11.0,100,0.00,,,0.00,Wunderground v.1.15,2013-03-07 07:05:00,
2013-03-07 02:10:00,61.8,61.8,30.01,NW,322,12.0,12.0,100,0.00,,,0.00,Wunderground v.1.15,2013-03-07 07:10:00,
2013-03-07 02:20:00,61.8,61.8,30.01,North,0,11.0,11.0,100,0.00,,,0.00,Wunderground v.1.15,2013-03-07 07:20:00,
2013-03-07 02:25:00,61.6,61.6,30.01,North,3,9.0,11.0,100,0.00,,,0.00,Wunderground v.1.15,2013-03-07 07:25:00,
2013-03-07 02:35:00,60.7,60.7,30.01,North,0,8.0,9.0,100,0.00,,,0.00,Wunderground v.1.15,2013-03-07 07:35:00,
2013-03-07 02:50:00,60.2,60.2,30.01,NNE,24,9.0,12.0,100,0.00,,,0.00,Wunderground v.1.15,2013-03-07 07:50:00,
2013-03-07 02:55:00,60.1,60.1,30.01,North,7,9.0,12.0,100,0.00,,,0.00,Wunderground v.1.15,2013-03-07 07:55:00,
2013-03-07 03:00:00,59.6,59.6,30.00,NNE,20,11.0,11.0,100,0.00,,,0.00,Wunderground v.1.15,2013-03-07 08:00:00,
2013-03-07 03:05:00,59.2,59.2,30.00,NNE,27,12.0,16.0,100,0.00,,,0.00,Wunderground v.1.15,2013-03-07 08:05:00,
2013-03-07 03:10:00,58.4,58.4,30.00,North,0,12.0,12.0,100,0.00,,,0.00,Wunderground v.1.15,2013-03-07 08:10:00,
2013-03-07 03:15:00,57.8,57.8,30.01,NNE,21,12.0,12.0,100,0.00,,,0.00,Wunderground v.1.15,2013-03-07 08:15:00,
2013-03-07 03:35:00,57.2,57.2,30.01,North,356,11.0,11.0,100,0.00,,,0.00,Wunderground v.1.15,2013-03-07 08:35:00,
2013-03-07 03:45:00,57.3,57.3,30.01,NNE,13,12.0,14.0,100,0.00,,,0.00,Wunderground v.1.15,2013-03-07 08:45:00,
2013-03-07 03:55:00,57.3,57.3,30.01,NNE,23,12.0,18.0,100,0.00,,,0.00,Wunderground v.1.15,2013-03-07 08:55:00,
2013-03-07 04:05:00,57.2,57.2,30.01,NW,325,12.0,12.0,100,0.00,,,0.00,Wunderground v.1.15,2013-03-07 09:05:00,
2013-03-07 04:10:00,57.2,57.2,30.01,NNW,337,12.0,18.0,100,0.00,,,0.00,Wunderground v.1.15,2013-03-07 09:10:00,
2013-03-07 04:15:00,57.2,57.2,30.01,NNW,340,12.0,18.0,100,0.00,,,0.00,Wunderground v.1.15,2013-03-07 09:15:00,
2013-03-07 04:26:00,56.9,56.9,30.01,NNW,340,12.0,14.0,100,0.00,,,0.00,Wunderground v.1.15,2013-03-07 09:26:00,
2013-03-07 04:35:00,57.0,57.0,30.02,NNW,342,14.0,16.0,100,0.00,,,0.00,Wunderground v.1.15,2013-03-07 09:35:00,
2013-03-07 04:40:00,57.2,57.2,30.02,North,0,14.0,14.0,100,0.00,,,0.00,Wunderground v.1.15,2013-03-07 09:40:00,
2013-03-07 04:45:00,57.0,57.0,30.02,North,10,13.0,14.0,100,0.00,,,0.00,Wunderground v.1.15,2013-03-07 09:45:00,
2013-03-07 04:50:00,56.9,56.9,30.02,North,7,13.0,14.0,100,0.00,,,0.00,Wunderground v.1.15,2013-03-07 09:50:00,
2013-03-07 05:00:00,56.7,56.7,30.02,North,1,13.0,13.0,100,0.00,,,0.00,Wunderground v.1.15,2013-03-07 10:00:00,
2013-03-07 05:05:00,56.6,56.6,30.02,North,0,13.0,16.0,100,0.00,,,0.00,Wunderground v.1.15,2013-03-07 10:05:00,
2013-03-07 05:15:00,56.5,56.5,30.03,North,352,13.0,14.0,100,0.00,,,0.00,Wunderground v.1.15,2013-03-07 10:15:00,
2013-03-07 05:20:00,56.5,56.5,30.03,NE,41,13.0,13.0,100,0.00,,,0.00,Wunderground v.1.15,2013-03-07 10:20:00,
2013-03-07 05:30:00,56.3,56.3,30.03,NNE,20,13.0,13.0,100,0.00,,,0.00,Wunderground v.1.15,2013-03-07 10:30:00,
2013-03-07 05:35:00,56.3,56.3,30.03,NNE,13,13.0,13.0,100,0.00,,,0.00,Wunderground v.1.15,2013-03-07 10:35:00,
2013-03-07 05:40:00,56.2,56.2,30.03,North,354,11.0,11.0,100,0.00,,,0.00,Wunderground v.1.15,2013-03-07 10:40:00,
2013-03-07 05:50:00,56.0,56.0,30.04,NNE,25,11.0,11.0,100,0.00,,,0.00,Wunderground v.1.15,2013-03-07 10:50:00,
2013-03-07 05:55:00,55.9,55.9,30.04,North,4,12.0,13.0,100,0.00,,,0.00,Wunderground v.1.15,2013-03-07 10:55:00,
2013-03-07 06:00:00,56.0,56.0,30.04,North,6,10.0,10.0,100,0.00,,,0.00,Wunderground v.1.15,2013-03-07 11:00:00,
2013-03-07 06:05:00,56.0,56.0,30.04,NNW,330,9.0,10.0,100,0.00,,,0.00,Wunderground v.1.15,2013-03-07 11:05:00,
2013-03-07 06:10:00,56.0,56.0,30.04,North,3,9.0,10.0,100,0.00,,,0.00,Wunderground v.1.15,2013-03-07 11:10:00,
2013-03-07 06:20:00,55.9,55.9,30.05,North,6,9.0,12.0,100,0.00,,,0.00,Wunderground v.1.15,2013-03-07 11:20:00,
2013-03-07 06:30:00,55.9,55.9,30.06,NNW,344,10.0,10.0,100,0.00,,,0.00,Wunderground v.1.15,2013-03-07 11:30:00,
2013-03-07 06:35:00,55.9,55.9,30.06,North,349,9.0,10.0,100,0.00,,,0.00,Wunderground v.1.15,2013-03-07 11:35:00,
2013-03-07 06:40:00,55.7,55.7,30.06,North,0,9.0,9.0,100,0.00,,,0.00,Wunderground v.1.15,2013-03-07 11:40:00,
2013-03-07 06:45:00,55.7,55.7,30.07,North,0,10.0,10.0,100,0.00,,,0.00,Wunderground v.1.15,2013-03-07 11:45:00,
2013-03-07 06:50:00,55.7,55.7,30.07,North,0,11.0,11.0,100,0.00,,,0.00,Wunderground v.1.15,2013-03-07 11:50:00,
2013-03-07 07:00:00,55.9,55.9,30.08,NNE,13,8.0,13.0,100,0.00,,,0.00,Wunderground v.1.15,2013-03-07 12:00:00,
2013-03-07 07:05:00,55.9,55.9,30.08,NNW,337,8.0,13.0,100,0.00,,,0.00,Wunderground v.1.15,2013-03-07 12:05:00,
2013-03-07 07:10:00,55.9,55.9,30.08,North,0,8.0,10.0,100,0.00,,,0.00,Wunderground v.1.15,2013-03-07 12:10:00,
2013-03-07 07:15:00,55.7,55.7,30.08,NNE,13,8.0,10.0,100,0.00,,,0.00,Wunderground v.1.15,2013-03-07 12:15:00,
2013-03-07 07:25:00,55.9,55.9,30.08,North,11,8.0,8.0,100,0.00,,,0.00,Wunderground v.1.15,2013-03-07 12:25:00,
2013-03-07 07:30:00,55.7,55.7,30.09,NNE,17,9.0,10.0,100,0.00,,,0.00,Wunderground v.1.15,2013-03-07 12:30:00,
2013-03-07 07:40:00,55.9,55.9,30.09,North,0,8.0,8.0,100,0.00,,,0.00,Wunderground v.1.15,2013-03-07 12:40:00,
2013-03-07 07:45:00,55.9,55.9,30.09,NNE,28,9.0,9.0,100,0.00,,,0.00,Wunderground v.1.15,2013-03-07 12:45:00,
2013-03-07 07:55:00,55.7,55.7,30.09,North,0,10.0,13.0,100,0.00,,,0.00,Wunderground v.1.15,2013-03-07 12:55:00,
2013-03-07 08:05:00,55.7,55.7,30.09,North,0,10.0,11.0,100,0.00,,,0.00,Wunderground v.1.15,2013-03-07 13:05:00,
2013-03-07 08:10:00,55.9,55.9,30.09,North,3,10.0,14.0,100,0.00,,,0.00,Wunderground v.1.15,2013-03-07 13:10:00,
2013-03-07 08:15:00,55.9,55.9,30.09,NNE,17,10.0,14.0,100,0.00,,,0.00,Wunderground v.1.15,2013-03-07 13:15:00,
2013-03-07 08:20:00,55.9,55.9,30.09,North,0,9.0,9.0,100,0.00,,,0.00,Wunderground v.1.15,2013-03-07 13:20:00,
2013-03-07 08:25:00,55.9,55.9,30.09,North,10,9.0,9.0,100,0.00,,,0.00,Wunderground v.1.15,2013-03-07 13:25:00,
2013-03-07 08:30:00,55.9,55.9,30.09,North,350,10.0,12.0,100,0.00,,,0.00,Wunderground v.1.15,2013-03-07 13:30:00,
2013-03-07 08:40:00,56.0,56.0,30.09,North,6,9.0,11.0,100,0.00,,,0.00,Wunderground v.1.15,2013-03-07 13:40:00,
2013-03-07 08:50:00,56.2,56.2,30.10,North,6,10.0,10.0,100,0.00,,,0.00,Wunderground v.1.15,2013-03-07 13:50:00,
2013-03-07 08:55:00,56.3,56.3,30.10,North,0,9.0,10.0,100,0.00,,,0.00,Wunderground v.1.15,2013-03-07 13:55:00,
2013-03-07 09:10:00,56.0,56.0,30.10,North,357,10.0,10.0,100,0.00,,,0.00,Wunderground v.1.15,2013-03-07 14:10:00,
2013-03-07 09:15:00,56.3,56.3,30.10,North,359,10.0,11.0,100,0.00,,,0.00,Wunderground v.1.15,2013-03-07 14:15:00,
2013-03-07 09:20:00,56.3,56.3,30.10,North,8,9.0,10.0,100,0.00,,,0.00,Wunderground v.1.15,2013-03-07 14:20:00,
2013-03-07 09:25:00,56.2,56.2,30.10,North,8,10.0,12.0,100,0.00,,,0.00,Wunderground v.1.15,2013-03-07 14:25:00,
2013-03-07 09:30:00,56.3,56.3,30.11,NNW,328,10.0,10.0,100,0.00,,,0.00,Wunderground v.1.15,2013-03-07 14:30:00,
2013-03-07 09:40:00,56.9,56.9,30.11,NNW,344,8.0,8.0,100,0.00,,,0.00,Wunderground v.1.15,2013-03-07 14:40:00,
2013-03-07 09:45:00,57.0,57.0,30.11,NNE,14,7.0,8.0,100,0.00,,,0.00,Wunderground v.1.15,2013-03-07 14:45:00,
2013-03-07 09:55:00,56.6,56.6,30.11,NNE,13,8.0,11.0,100,0.00,,,0.00,Wunderground v.1.15,2013-03-07 14:55:00,
2013-03-07 10:00:00,56.7,56.7,30.11,North,0,9.0,9.0,100,0.00,,,0.00,Wunderground v.1.15,2013-03-07 15:00:00,
2013-03-07 10:05:00,56.9,56.9,30.11,NNE,13,8.0,9.0,100,0.00,,,0.00,Wunderground v.1.15,2013-03-07 15:05:00,
2013-03-07 10:15:00,57.3,57.3,30.12,North,7,7.0,10.0,100,0.00,,,0.00,Wunderground v.1.15,2013-03-07 15:15:00,
2013-03-07 10:20:00,57.8,57.8,30.12,NNE,16,6.0,6.0,100,0.00,,,0.00,Wunderground v.1.15,2013-03-07 15:20:00,
2013-03-07 10:25:00,57.5,57.5,30.12,North,0,6.0,6.0,100,0.00,,,0.00,Wunderground v.1.15,2013-03-07 15:25:00,
2013-03-07 10:35:00,57.8,57.8,30.12,North,357,6.0,10.0,100,0.00,,,0.00,Wunderground v.1.15,2013-03-07 15:35:00,
2013-03-07 10:40:00,58.0,58.0,30.12,North,0,5.0,8.0,100,0.00,,,0.00,Wunderground v.1.15,2013-03-07 15:40:00,
2013-03-07 10:45:00,58.0,58.0,30.12,NNW,340,5.0,8.0,100,0.00,,,0.00,Wunderground v.1.15,2013-03-07 15:45:00,
2013-03-07 10:50:00,58.0,58.0,30.12,NNE,28,5.0,9.0,100,0.00,,,0.00,Wunderground v.1.15,2013-03-07 15:50:00,
2013-03-07 10:55:00,58.3,58.3,30.12,North,350,5.0,9.0,100,0.00,,,0.00,Wunderground v.1.15,2013-03-07 15:55:00,
2013-03-07 11:00:00,58.3,58.3,30.13,North,10,5.0,5.0,100,0.00,,,0.00,Wunderground v.1.15,2013-03-07 16:00:00,
2013-03-07 11:10:00,58.1,58.1,30.13,NNE,23,5.0,8.0,100,0.00,,,0.00,Wunderground v.1.15,2013-03-07 16:10:00,
2013-03-07 11:15:00,58.7,58.7,30.13,NNW,346,5.0,8.0,100,0.00,,,0.00,Wunderground v.1.15,2013-03-07 16:15:00,
2013-03-07 11:20:00,58.9,58.9,30.13,NW,306,5.0,7.0,100,0.00,,,0.00,Wunderground v.1.15,2013-03-07 16:20:00,
2013-03-07 11:25:00,58.7,58.7,30.13,NNW,347,6.0,11.0,100,0.00,,,0.00,Wunderground v.1.15,2013-03-07 16:25:00,
2013-03-07 11:30:00,58.9,58.9,30.13,NNW,329,5.0,6.0,100,0.00,,,0.00,Wunderground v.1.15,2013-03-07 16:30:00,
2013-03-07 11:40:00,59.3,59.3,30.13,NNE,13,5.0,8.0,100,0.00,,,0.00,Wunderground v.1.15,2013-03-07 16:40:00,
2013-03-07 11:50:00,59.6,59.6,30.12,NNW,346,4.0,8.0,100,0.00,,,0.00,Wunderground v.1.15,2013-03-07 16:50:00,
2013-03-07 11:55:00,59.6,59.6,30.12,North,350,5.0,8.0,100,0.00,,,0.00,Wunderground v.1.15,2013-03-07 16:55:00,
2013-03-07 12:00:00,59.3,59.3,30.12,NNW,337,6.0,6.0,100,0.00,,,0.00,Wunderground v.1.15,2013-03-07 17:00:00,
2013-03-07 12:05:00,59.2,59.2,30.12,North,356,6.0,6.0,100,0.00,,,0.00,Wunderground v.1.15,2013-03-07 17:05:00,
2013-03-07 12:10:00,59.3,59.3,30.12,NNW,332,6.0,6.0,100,0.00,,,0.00,Wunderground v.1.15,2013-03-07 17:10:00,
2013-03-07 12:20:00,59.6,59.6,30.12,NW,323,6.0,6.0,100,0.00,,,0.00,Wunderground v.1.15,2013-03-07 17:20:00,
2013-03-07 12:25:00,60.1,60.1,30.12,NNW,332,6.0,7.0,100,0.00,,,0.00,Wunderground v.1.15,2013-03-07 17:25:00,
2013-03-07 12:30:00,60.1,60.1,30.10,NNW,336,5.0,10.0,100,0.00,,,0.00,Wunderground v.1.15,2013-03-07 17:30:00,
2013-03-07 12:40:00,59.9,59.9,30.10,NW,318,6.0,6.0,100,0.00,,,0.00,Wunderground v.1.15,2013-03-07 17:40:00,
2013-03-07 12:45:00,60.4,60.4,30.09,NW,326,6.0,11.0,100,0.00,,,0.00,Wunderground v.1.15,2013-03-07 17:45:00,
2013-03-07 12:50:00,60.5,60.5,30.09,NNW,347,6.0,7.0,100,0.00,,,0.00,Wunderground v.1.15,2013-03-07 17:50:00,
2013-03-07 12:55:00,60.2,60.2,30.09,North,0,6.0,8.0,100,0.00,,,0.00,Wunderground v.1.15,2013-03-07 17:55:00,
2013-03-07 13:00:00,60.1,60.1,30.08,NNE,14,7.0,7.0,100,0.00,,,0.00,Wunderground v.1.15,2013-03-07 18:00:00,
2013-03-07 13:10:00,60.5,60.5,30.08,NW,319,5.0,5.0,100,0.00,,,0.00,Wunderground v.1.15,2013-03-07 18:10:00,
2013-03-07 13:15:00,60.4,60.4,30.08,NW,308,5.0,5.0,100,0.00,,,0.00,Wunderground v.1.15,2013-03-07 18:15:00,
2013-03-07 13:30:00,60.2,60.2,30.07,North,352,6.0,9.0,100,0.00,,,0.00,Wunderground v.1.15,2013-03-07 18:30:00,
2013-03-07 13:35:00,60.2,60.2,30.07,North,352,5.0,9.0,100,0.00,,,0.00,Wunderground v.1.15,2013-03-07 18:35:00,
2013-03-07 13:40:00,60.2,60.2,30.07,NW,319,6.0,7.0,100,0.00,,,0.00,Wunderground v.1.15,2013-03-07 18:40:00,
2013-03-07 13:50:00,60.5,60.5,30.06,NW,313,6.0,8.0,100,0.00,,,0.00,Wunderground v.1.15,2013-03-07 18:50:00,
2013-03-07 14:00:00,60.7,60.7,30.06,NNW,342,6.0,8.0,100,0.00,,,0.00,Wunderground v.1.15,2013-03-07 19:00:00,
2013-03-07 14:05:00,61.2,61.2,30.06,NW,309,5.0,8.0,100,0.00,,,0.00,Wunderground v.1.15,2013-03-07 19:05:00,
2013-03-07 14:10:00,61.2,61.2,30.06,NNW,339,4.0,5.0,100,0.00,,,0.00,Wunderground v.1.15,2013-03-07 19:10:00,
2013-03-07 14:15:00,61.0,61.0,30.06,NW,323,5.0,7.0,100,0.00,,,0.00,Wunderground v.1.15,2013-03-07 19:15:00,
2013-03-07 14:25:00,61.2,61.2,30.06,NW,318,5.0,10.0,100,0.00,,,0.00,Wunderground v.1.15,2013-03-07 19:25:00,
2013-03-07 14:30:00,61.2,61.2,30.06,NW,309,6.0,10.0,100,0.00,,,0.00,Wunderground v.1.15,2013-03-07 19:30:00,
2013-03-07 14:40:00,61.6,61.6,30.06,WNW,289,6.0,6.0,100,0.00,,,0.00,Wunderground v.1.15,2013-03-07 19:40:00,
2013-03-07 14:45:00,61.6,61.6,30.06,West,270,5.0,7.0,100,0.00,,,0.00,Wunderground v.1.15,2013-03-07 19:45:00,
2013-03-07 14:50:00,62.0,62.0,30.06,WNW,299,6.0,10.0,100,0.00,,,0.00,Wunderground v.1.15,2013-03-07 19:50:00,
2013-03-07 15:00:00,61.8,61.8,30.06,North,354,6.0,7.0,100,0.00,,,0.00,Wunderground v.1.15,2013-03-07 20:00:00,
2013-03-07 15:05:00,61.8,61.8,30.06,WNW,294,7.0,8.0,100,0.00,,,0.00,Wunderground v.1.15,2013-03-07 20:05:00,
2013-03-07 15:20:00,62.1,62.1,30.07,NW,312,5.0,12.0,100,0.00,,,0.00,Wunderground v.1.15,2013-03-07 20:20:00,
2013-03-07 15:30:00,61.8,61.8,30.06,NW,311,7.0,8.0,100,0.00,,,0.00,Wunderground v.1.15,2013-03-07 20:30:00,
2013-03-07 15:40:00,61.6,61.6,30.06,NW,325,7.0,7.0,100,0.00,,,0.00,Wunderground v.1.15,2013-03-07 20:40:00,
2013-03-07 15:45:00,61.8,61.8,30.06,NW,306,7.0,13.0,100,0.00,,,0.00,Wunderground v.1.15,2013-03-07 20:45:00,
2013-03-07 15:55:00,61.6,61.6,30.06,WNW,302,9.0,12.0,100,0.00,,,0.00,Wunderground v.1.15,2013-03-07 20:55:00,
2013-03-07 16:00:00,61.6,61.6,30.06,NNW,333,9.0,11.0,100,0.00,,,0.00,Wunderground v.1.15,2013-03-07 21:00:00,
2013-03-07 16:05:00,61.5,61.5,30.06,WNW,288,8.0,11.0,100,0.00,,,0.00,Wunderground v.1.15,2013-03-07 21:05:00,
2013-03-07 16:10:00,61.6,61.6,30.06,NW,316,9.0,9.0,100,0.00,,,0.00,Wunderground v.1.15,2013-03-07 21:10:00,
2013-03-07 16:20:00,61.3,61.3,30.05,NNW,330,8.0,8.0,100,0.00,,,0.00,Wunderground v.1.15,2013-03-07 21:20:00,
2013-03-07 16:25:00,61.5,61.5,30.05,WNW,282,7.0,11.0,100,0.00,,,0.00,Wunderground v.1.15,2013-03-07 21:25:00,
2013-03-07 16:35:00,61.3,61.3,30.05,NW,325,9.0,9.0,100,0.00,,,0.00,Wunderground v.1.15,2013-03-07 21:35:00,
2013-03-07 16:40:00,61.0,61.0,30.05,NW,308,10.0,10.0,100,0.00,,,0.00,Wunderground v.1.15,2013-03-07 21:40:00,
2013-03-07 16:50:00,61.5,61.5,30.06,NW,306,7.0,8.0,100,0.00,,,0.00,Wunderground v.1.15,2013-03-07 21:50:00,
2013-03-07 16:55:00,61.6,61.6,30.06,NW,320,8.0,10.0,100,0.00,,,0.00,Wunderground v.1.15,2013-03-07 21:55:00,
2013-03-07 17:00:00,61.5,61.5,30.06,NW,319,8.0,8.0,100,0.00,,,0.00,Wunderground v.1.15,2013-03-07 22:00:00,
2013-03-07 17:05:00,61.6,61.6,30.06,NW,315,8.0,8.0,100,0.00,,,0.00,Wunderground v.1.15,2013-03-07 22:05:00,
2013-03-07 17:10:00,61.6,61.6,30.06,NW,313,7.0,11.0,100,0.00,,,0.00,Wunderground v.1.15,2013-03-07 22:10:00,
2013-03-07 17:15:00,61.6,61.6,30.06,NW,315,7.0,11.0,100,0.00,,,0.00,Wunderground v.1.15,2013-03-07 22:15:00,
2013-03-07 17:25:00,61.3,61.3,30.06,NW,320,8.0,8.0,100,0.00,,,0.00,Wunderground v.1.15,2013-03-07 22:25:00,
2013-03-07 17:30:00,61.3,61.3,30.06,WNW,299,9.0,12.0,100,0.00,,,0.00,Wunderground v.1.15,2013-03-07 22:30:00,
2013-03-07 17:40:00,61.5,61.5,30.06,NNW,328,8.0,10.0,100,0.00,,,0.00,Wunderground v.1.15,2013-03-07 22:40:00,
2013-03-07 17:45:00,61.5,61.5,30.06,NNW,336,8.0,10.0,100,0.00,,,0.00,Wunderground v.1.15,2013-03-07 22:45:00,
2013-03-07 17:50:00,61.5,61.5,30.06,NNW,329,7.0,7.0,100,0.00,,,0.00,Wunderground v.1.15,2013-03-07 22:50:00,
2013-03-07 17:55:00,61.3,61.3,30.06,WNW,302,8.0,8.0,100,0.00,,,0.00,Wunderground v.1.15,2013-03-07 22:55:00,
2013-03-07 18:00:00,61.2,61.2,30.06,NW,305,9.0,9.0,100,0.00,,,0.00,Wunderground v.1.15,2013-03-07 23:00:00,
2013-03-07 18:05:00,61.3,61.3,30.06,NW,319,7.0,9.0,100,0.00,,,0.00,Wunderground v.1.15,2013-03-07 23:05:00,
2013-03-07 18:15:00,61.2,61.2,30.07,NW,309,8.0,8.0,100,0.00,,,0.00,Wunderground v.1.15,2013-03-07 23:15:00,
2013-03-07 18:25:00,60.9,60.9,30.07,NW,309,6.0,7.0,100,0.00,,,0.00,Wunderground v.1.15,2013-03-07 23:25:00,
2013-03-07 18:30:00,60.7,60.7,30.07,NW,315,7.0,7.0,100,0.00,,,0.00,Wunderground v.1.15,2013-03-07 23:30:00,
2013-03-07 18:35:00,60.9,60.9,30.07,WNW,299,6.0,7.0,100,0.00,,,0.00,Wunderground v.1.15,2013-03-07 23:35:00,
2013-03-07 18:40:00,60.7,60.7,30.07,NW,325,6.0,6.0,100,0.00,,,0.00,Wunderground v.1.15,2013-03-07 23:40:00,
2013-03-07 18:50:00,60.7,60.7,30.07,NW,323,7.0,7.0,100,0.00,,,0.00,Wunderground v.1.15,2013-03-07 23:50:00,
2013-03-07 19:00:00,60.9,60.9,30.07,WNW,296,6.0,7.0,100,0.00,,,0.00,Wunderground v.1.15,2013-03-08 00:00:00,
2013-03-07 19:10:00,60.9,60.9,30.07,WNW,292,6.0,8.0,100,0.00,,,0.00,Wunderground v.1.15,2013-03-08 00:10:00,
2013-03-07 19:15:00,60.7,60.7,30.08,NW,325,5.0,8.0,100,0.00,,,0.00,Wunderground v.1.15,2013-03-08 00:15:00,
2013-03-07 19:20:00,60.7,60.7,30.08,NW,318,6.0,6.0,100,0.00,,,0.00,Wunderground v.1.15,2013-03-08 00:20:00,
2013-03-07 19:30:00,60.9,60.9,30.08,NW,312,7.0,7.0,100,0.00,,,0.00,Wunderground v.1.15,2013-03-08 00:30:00,
2013-03-07 19:35:00,60.9,60.9,30.08,NW,306,7.0,8.0,100,0.00,,,0.00,Wunderground v.1.15,2013-03-08 00:35:00,
2013-03-07 19:45:00,61.0,61.0,30.08,NW,304,5.0,10.0,100,0.00,,,0.00,Wunderground v.1.15,2013-03-08 00:45:00,
2013-03-07 19:55:00,61.0,61.0,30.08,NW,326,7.0,7.0,100,0.00,,,0.00,Wunderground v.1.15,2013-03-08 00:55:00,
2013-03-07 20:05:00,61.2,61.2,30.09,NNW,328,7.0,8.0,100,0.00,,,0.00,Wunderground v.1.15,2013-03-08 01:05:00,
2013-03-07 20:10:00,61.2,61.2,30.09,NW,309,7.0,7.0,100,0.00,,,0.00,Wunderground v.1.15,2013-03-08 01:10:00,
2013-03-07 20:20:00,61.2,61.2,30.09,NNW,346,7.0,7.0,100,0.00,,,0.00,Wunderground v.1.15,2013-03-08 01:20:00,
2013-03-07 20:25:00,61.3,61.3,30.09,NW,319,7.0,7.0,100,0.00,,,0.00,Wunderground v.1.15,2013-03-08 01:25:00,
2013-03-07 20:30:00,61.3,61.3,30.09,WNW,295,8.0,8.0,100,0.00,,,0.00,Wunderground v.1.15,2013-03-08 01:30:00,
2013-03-07 20:40:00,61.3,61.3,30.09,North,349,7.0,7.0,100,0.00,,,0.00,Wunderground v.1.15,2013-03-08 01:40:00,
2013-03-07 20:50:00,61.3,61.3,30.09,NW,315,7.0,7.0,100,0.00,,,0.00,Wunderground v.1.15,2013-03-08 01:50:00,
2013-03-07 20:55:00,61.5,61.5,30.09,WNW,296,6.0,7.0,100,0.00,,,0.00,Wunderground v.1.15,2013-03-08 01:55:00,
2013-03-07 21:00:00,61.5,61.5,30.10,NW,318,6.0,6.0,100,0.00,,,0.00,Wunderground v.1.15,2013-03-08 02:00:00,
2013-03-07 21:10:00,61.5,61.5,30.10,North,349,6.0,6.0,100,0.00,,,0.00,Wunderground v.1.15,2013-03-08 02:10:00,
2013-03-07 21:15:00,61.3,61.3,30.10,WNW,294,5.0,6.0,100,0.00,,,0.00,Wunderground v.1.15,2013-03-08 02:15:00,
2013-03-07 21:25:00,61.5,61.5,30.10,NW,309,6.0,6.0,100,0.00,,,0.00,Wunderground v.1.15,2013-03-08 02:25:00,
2013-03-07 21:30:00,61.5,61.5,30.10,NNW,346,5.0,6.0,100,0.00,,,0.00,Wunderground v.1.15,2013-03-08 02:30:00,
2013-03-07 21:40:00,61.5,61.5,30.10,NW,326,5.0,6.0,100,0.00,,,0.00,Wunderground v.1.15,2013-03-08 02:40:00,
2013-03-07 21:45:00,61.5,61.5,30.11,North,0,5.0,6.0,100,0.00,,,0.00,Wunderground v.1.15,2013-03-08 02:45:00,
2013-03-07 21:50:00,61.3,61.3,30.11,NNW,332,4.0,6.0,100,0.00,,,0.00,Wunderground v.1.15,2013-03-08 02:50:00,
2013-03-07 21:55:00,61.3,61.3,30.11,NW,312,4.0,6.0,100,0.00,,,0.00,Wunderground v.1.15,2013-03-08 02:55:00,
2013-03-07 22:00:00,61.5,61.5,30.10,NW,320,4.0,4.0,100,0.00,,,0.00,Wunderground v.1.15,2013-03-08 03:00:00,
2013-03-07 22:10:00,61.5,61.5,30.10,WNW,299,4.0,4.0,100,0.00,,,0.00,Wunderground v.1.15,2013-03-08 03:10:00,
2013-03-07 22:15:00,61.3,61.3,30.10,North,356,4.0,4.0,100,0.00,,,0.00,Wunderground v.1.15,2013-03-08 03:15:00,
2013-03-07 22:20:00,61.5,61.5,30.10,NNW,336,3.0,5.0,100,0.00,,,0.00,Wunderground v.1.15,2013-03-08 03:20:00,
2013-03-07 22:30:00,61.6,61.6,30.10,NW,309,4.0,7.0,100,0.00,,,0.00,Wunderground v.1.15,2013-03-08 03:30:00,
2013-03-07 22:35:00,61.5,61.5,30.10,North,357,5.0,7.0,100,0.00,,,0.00,Wunderground v.1.15,2013-03-08 03:35:00,
2013-03-07 22:45:00,61.6,61.6,30.10,NNW,330,4.0,4.0,100,0.00,,,0.00,Wunderground v.1.15,2013-03-08 03:45:00,
2013-03-07 22:50:00,61.8,61.8,30.10,NW,304,5.0,5.0,100,0.00,,,0.00,Wunderground v.1.15,2013-03-08 03:50:00,
2013-03-07 22:55:00,61.8,61.8,30.10,North,1,4.0,5.0,100,0.00,,,0.00,Wunderground v.1.15,2013-03-08 03:55:00,
2013-03-07 23:05:00,61.6,61.6,30.10,NNW,328,5.0,7.0,100,0.00,,,0.00,Wunderground v.1.15,2013-03-08 04:05:00,
2013-03-07 23:15:00,61.8,61.8,30.10,NNW,339,6.0,8.0,100,0.00,,,0.00,Wunderground v.1.15,2013-03-08 04:15:00,
2013-03-07 23:20:00,61.8,61.8,30.10,North,0,5.0,5.0,100,0.00,,,0.00,Wunderground v.1.15,2013-03-08 04:20:00,
2013-03-07 23:30:00,61.8,61.8,30.10,NNE,13,5.0,7.0,100,0.00,,,0.00,Wunderground v.1.15,2013-03-08 04:30:00,
2013-03-07 23:35:00,61.8,61.8,30.10,NNE,18,4.0,7.0,100,0.00,,,0.00,Wunderground v.1.15,2013-03-08 04:35:00,
2013-03-07 23:40:00,61.8,61.8,30.10,North,349,5.0,11.0,100,0.00,,,0.00,Wunderground v.1.15,2013-03-08 04:40:00,
2013-03-07 23:45:00,61.8,61.8,30.09,NW,316,6.0,11.0,100,0.00,,,0.00,Wunderground v.1.15,2013-03-08 04:45:00,
2013-03-07 23:50:00,62.0,62.0,30.09,North,354,6.0,11.0,100,0.00,,,0.00,Wunderground v.1.15,2013-03-08 04:50:00,
2013-03-07 23:55:00,61.8,61.8,30.09,North,350,6.0,11.0,100,0.00,,,0.00,Wunderground v.1.15,2013-03-08 04:55:00,